Temp
24 29 28 28 26 26 26 26 26 28 27 27 26 27 25 23 23 23 24 23 23 22 21 21 22 22 22 22 21 22 22 21 21 21 20 19 20 19 19 19 19 19 19 19
27 28 27 26 26 26 27 27 28 28 27 27 25 26 24 24 24 23 23 23 23 22 21 20 20 20 21 21 22 22 22 21 21 21 21 20 20 20 19 19 19 19 19 19
28 28 25 26 27 27 27 27 28 28 27 25 25 27 24 24 23 23 23 22 22 21 21 20 19 20 20 20 21 21 21 21 21 21 20 20 20 19 19 19 19 19 19 19
27 26 27 27 27 27 29 28 27 28 28 28 25 28 24 24 24 24 24 24 23 23 21 21 20 21 22 21 22 21 21 21 20 21 20 20 20 20 20 20 19 18 19 19
28 27 27 27 28 27 30 27 28 27 28 27 26 27 27 22 25 26 25 23 23 23 21 23 20 21 22 22 22 22 21 21 20 20 20 20 19 19 20 19 19 18 19 19
27 25 27 29 28 27 27 28 27 25 27 29 25 25 29 27 26 26 24 23 23 22 22 22 21 20 21 22 22 22 21 20 19 19 19 18 19 19 19 19 18 19 19 19
27 28 27 27 28 27 28 29 29 29 29 28 25 25 29 27 25 25 23 22 23 22 23 21 20 19 20 21 22 22 20 20 20 19 19 19 19 18 18 19 19 19 18 18
28 28 28 27 29 30 29 30 29 27 28 29 25 28 30 25 24 22 21 21 22 22 21 22 21 21 21 21 22 21 20 19 18 17 18 17 18 18 19 19 18 19 19 19
27 28 28 27 28 29 26 29 27 27 23 27 27 28 28 23 23 23 23 23 22 22 21 22 23 22 21 21 21 20 20 19 18 15 16 17 17 19 19 19 18 19 19 19
27 28 28 28 27 27 29 26 29 27 27 27 27 26 29 27 25 24 24 22 22 21 21 23 23 22 21 21 20 20 19 18 18 16 16 17 17 18 19 19 19 18 19 19
28 27 29 28 28 28 28 28 25 27 26 28 27 28 27 26 25 24 23 22 21 21 21 23 23 22 22 21 20 20 20 19 19 18 17 17 17 18 19 19 19 19 19 19
27 28 28 28 26 25 27 27 27 28 26 24 25 28 25 23 23 23 22 21 21 21 20 21 23 23 22 21 20 20 20 20 19 19 19 19 19 19 19 19 19 19 20 20
26 27 28 28 28 27 27 26 25 25 26 25 27 29 23 23 22 21 22 21 21 20 20 20 22 23 22 21 20 20 19 20 20 20 20 20 19 19 19 19 19 19 20 20
26 25 28 28 27 26 27 27 26 27 27 27 27 28 28 24 22 22 21 20 20 20 21 22 22 21 21 21 21 20 20 20 21 21 21 20 20 21 20 20 20 20 20 19
27 27 25 25 25 25 26 27 26 25 26 26 26 25 25 22 22 22 20 20 20 20 20 20 21 21 21 20 20 20 21 21 21 21 21 20 21 20 21 21 20 20 19 19
24 24 24 26 25 25 26 26 26 25 24 24 25 25 21 20 20 20 20 20 20 20 19 20 20 20 20 20 20 20 20 20 20 20 20 19 20 20 20 20 20 20 20 20
25 25 25 26 23 25 26 27 26 25 23 24 26 24 21 21 21 21 20 20 20 19 19 20 20 20 20 20 20 20 20 20 20 20 19 19 19 19 19 20 20 19 20 20
24 23 24 26 24 24 26 23 24 25 23 23 22 21 21 20 19 19 19 20 20 20 21 21 20 20 20 20 20 20 20 19 19 19 19 19 19 19 20 20 19 19 19 20
22 23 23 24 25 24 24 23 24 25 26 23 22 21 20 19 20 20 19 20 20 20 20 20 20 20 20 19 19 19 19 19 19 19 18 18 18 18 19 19 19 19 20 19
21 21 25 21 24 24 26 25 23 24 25 22 22 21 20 20 22 23 20 20 20 20 20 20 20 19 19 19 19 19 19 18 18 18 18 18 18 17 17 18 18 18 18 18
22 21 23 23 24 25 23 23 23 24 25 22 21 21 20 21 22 21 21 20 20 20 20 20 19 19 19 19 19 19 19 18 18 17 17 17 17 17 17 17 17 17 17 17
23 23 23 21 22 23 20 21 24 23 20 21 20 20 20 20 20 20 20 20 20 20 20 20 20 19 19 19 18 18 18 18 18 18 17 17 16 16 17 17 17 17 17 17
22 22 22 22 23 19 18 19 20 21 21 20 20 20 19 19 19 20 20 20 20 20 19 19 19 19 18 18 18 18 18 17 17 17 17 17 16 16 16 16 16 16 16 17
19 17 21 20 20 20 19 18 19 20 20 20 20 20 21 20 21 21 21 20 20 19 18 18 18 18 18 17 17 17 17 16 16 16 16 16 16 16 16 15 15 15 16 15
20 18 19 20 19 18 19 19 19 20 20 20 20 20 20 20 20 19 19 19 18 18 18 18 17 17 16 16 16 16 16 16 16 15 15 15 15 15 15 15 15 15 15 15
19 21 21 22 21 21 20 19 20 20 20 20 20 19 19 18 18 18 18 18 18 17 16 16 16 16 16 16 16 16 15 14 14 14 12 12 12 13 13 13 14 15 16 15
Height
1524 1525 1530 1530 1532 1533 1534 1535 1535 1522 1519 1519 1521 1517 1517 1519 1519 1519 1519 1518 1519 1520 1522 1524 1526 1530 1532 1534 1538 1540 1543 1546 1550 1553 1555 1557 1558 1561 1562 1563 1564 1565 1567 1568
1525 1527 1526 1529 1530 1531 1531 1533 1527 1521 1519 1519 1523 1517 1520 1520 1519 1519 1519 1518 1517 1516 1517 1521 1523 1525 1528 1530 1532 1534 1538 1541 1545 1549 1552 1555 1557 1558 1560 1561 1562 1563 1564 1566
1524 1525 1526 1528 1526 1528 1527 1529 1525 1525 1521 1523 1524 1520 1521 1519 1518 1517 1517 1517 1516 1514 1514 1514 1516 1520 1524 1526 1528 1532 1534 1537 1540 1544 1549 1551 1554 1555 1557 1558 1559 1560 1562 1564
1523 1522 1524 1524 1527 1525 1526 1518 1521 1521 1525 1531 1526 1531 1523 1519 1516 1515 1514 1514 1514 1513 1512 1511 1511 1514 1519 1521 1524 1527 1528 1532 1534 1539 1544 1547 1549 1551 1553 1555 1556 1558 1560 1561
1522 1522 1523 1525 1520 1521 1517 1517 1519 1520 1524 1527 1529 1532 1517 1523 1517 1512 1514 1514 1513 1512 1509 1507 1508 1510 1514 1518 1521 1523 1525 1526 1529 1533 1537 1542 1546 1548 1550 1552 1554 1555 1555 1557
1519 1520 1519 1514 1514 1516 1517 1517 1521 1524 1522 1530 1534 1536 1514 1515 1514 1511 1514 1514 1513 1511 1509 1506 1504 1506 1510 1514 1518 1520 1520 1521 1524 1527 1530 1536 1539 1542 1545 1548 1550 1552 1552 1554
1516 1511 1511 1512 1514 1515 1516 1518 1532 1535 1533 1536 1533 1535 1513 1509 1511 1513 1514 1515 1513 1512 1508 1506 1505 1506 1509 1512 1515 1516 1516 1517 1519 1520 1523 1526 1532 1537 1542 1544 1547 1547 1548 1550
1522 1523 1508 1508 1507 1508 1513 1513 1529 1551 1543 1532 1530 1526 1507 1511 1513 1515 1514 1514 1513 1512 1509 1506 1505 1505 1507 1511 1513 1514 1514 1515 1515 1516 1516 1517 1525 1534 1537 1540 1542 1543 1544 1546
1522 1516 1505 1506 1505 1507 1518 1518 1518 1530 1543 1536 1529 1516 1506 1512 1513 1515 1515 1513 1514 1513 1509 1506 1506 1505 1506 1509 1512 1514 1514 1515 1515 1510 1511 1519 1524 1531 1535 1537 1539 1538 1540 1542
1513 1519 1506 1505 1506 1508 1506 1513 1521 1523 1543 1546 1530 1529 1515 1509 1511 1513 1515 1514 1514 1511 1509 1507 1506 1506 1508 1510 1511 1512 1513 1515 1516 1513 1517 1524 1526 1529 1531 1534 1534 1535 1536 1538
1507 1513 1510 1505 1510 1512 1511 1513 1523 1521 1529 1533 1538 1524 1506 1508 1510 1512 1515 1514 1513 1512 1510 1508 1507 1507 1509 1510 1511 1512 1514 1515 1518 1519 1522 1524 1525 1529 1530 1532 1531 1531 1532 1534
1507 1508 1514 1515 1513 1513 1509 1515 1514 1521 1533 1536 1534 1521 1506 1511 1514 1515 1515 1514 1513 1513 1512 1511 1510 1509 1509 1510 1512 1513 1515 1515 1516 1518 1520 1523 1526 1527 1528 1528 1526 1526 1527 1529
1503 1511 1520 1519 1514 1512 1513 1515 1519 1519 1522 1531 1530 1517 1509 1512 1515 1517 1516 1515 1513 1513 1514 1513 1511 1511 1511 1511 1512 1514 1515 1515 1516 1516 1516 1517 1520 1521 1520 1521 1521 1522 1523 1524
1499 1509 1508 1518 1517 1515 1519 1516 1517 1516 1522 1519 1518 1510 1504 1511 1514 1516 1516 1515 1514 1514 1515 1514 1513 1513 1513 1512 1512 1513 1513 1513 1513 1513 1512 1513 1514 1514 1515 1515 1516 1520 1520 1520
1498 1510 1513 1514 1513 1515 1515 1515 1516 1519 1515 1520 1514 1517 1508 1512 1513 1514 1516 1516 1515 1515 1516 1516 1515 1515 1515 1515 1514 1515 1514 1513 1512 1511 1510 1510 1511 1511 1511 1512 1513 1513 1515 1515
1501 1515 1514 1516 1515 1515 1516 1511 1510 1513 1514 1515 1513 1510 1512 1514 1514 1515 1516 1516 1516 1516 1518 1518 1517 1517 1517 1517 1517 1517 1515 1513 1512 1510 1509 1509 1509 1509 1508 1508 1508 1507 1506 1508
1501 1508 1512 1518 1520 1516 1519 1507 1508 1509 1510 1510 1510 1509 1512 1512 1513 1515 1516 1517 1516 1518 1518 1519 1518 1518 1519 1519 1519 1517 1516 1515 1514 1512 1511 1511 1510 1508 1507 1506 1505 1504 1501 1499
1504 1509 1513 1513 1519 1533 1505 1506 1506 1505 1507 1508 1509 1510 1511 1513 1515 1516 1516 1516 1517 1518 1519 1519 1519 1519 1519 1519 1519 1518 1518 1517 1515 1514 1513 1512 1510 1508 1506 1503 1502 1500 1499 1498
1504 1506 1516 1518 1514 1515 1509 1505 1504 1505 1504 1505 1506 1510 1512 1514 1515 1516 1515 1515 1517 1518 1519 1519 1519 1518 1518 1518 1518 1517 1517 1516 1515 1514 1512 1510 1509 1507 1505 1503 1500 1497 1494 1494
1506 1507 1505 1523 1520 1522 1496 1497 1501 1503 1509 1501 1504 1507 1510 1513 1513 1512 1513 1515 1517 1518 1518 1518 1517 1517 1517 1516 1516 1515 1514 1513 1512 1511 1510 1508 1506 1504 1502 1500 1497 1495 1493 1491
1506 1510 1509 1512 1511 1501 1499 1500 1501 1514 1506 1498 1502 1505 1509 1511 1511 1512 1512 1514 1515 1515 1516 1516 1516 1515 1515 1514 1513 1512 1511 1510 1509 1507 1506 1505 1504 1502 1499 1496 1494 1492 1489 1487
1502 1506 1508 1513 1513 1513 1500 1502 1502 1499 1498 1500 1502 1504 1506 1508 1509 1510 1512 1513 1514 1514 1514 1514 1514 1514 1513 1511 1510 1509 1508 1506 1504 1503 1501 1500 1499 1498 1496 1494 1491 1489 1486 1482
1505 1502 1502 1504 1500 1501 1500 1500 1498 1499 1499 1500 1502 1503 1505 1507 1509 1510 1511 1512 1512 1512 1511 1511 1511 1510 1509 1508 1506 1505 1503 1501 1499 1498 1496 1494 1493 1491 1490 1487 1485 1481 1478 1476
1501 1504 1501 1504 1500 1500 1500 1499 1499 1500 1500 1502 1503 1504 1506 1507 1508 1509 1510 1510 1509 1508 1508 1507 1507 1506 1505 1504 1503 1501 1499 1497 1495 1493 1491 1489 1486 1484 1481 1479 1477 1474 1471 1469
1498 1502 1501 1500 1500 1500 1499 1499 1499 1501 1502 1504 1505 1506 1507 1508 1508 1508 1507 1507 1506 1505 1504 1503 1502 1501 1500 1499 1498 1496 1494 1491 1488 1485 1483 1480 1478 1475 1473 1471 1469 1466 1462 1462
1496 1494 1495 1492 1493 1493 1495 1497 1499 1501 1502 1504 1505 1505 1506 1506 1506 1506 1505 1504 1502 1501 1501 1500 1499 1497 1495 1493 1490 1487 1485 1483 1479 1476 1474 1472 1470 1468 1465 1462 1458 1456 1453 1451
Wind_Speed
3 2 2 3 2 2 3 5 9 6 3 0 2 5 3 0 5 7 9 12 16 21 21 22 27 27 28 29 30 28 26 26 26 28 28 28 24 23 22 20 19 18 14 14
3 8 3 3 4 3 4 8 7 7 3 2 3 7 3 3 2 5 9 15 17 18 17 19 24 26 28 29 32 30 27 31 28 27 26 27 27 24 23 21 20 20 18 16
6 2 4 4 1 4 5 6 5 5 3 4 1 5 1 1 4 6 5 8 8 11 12 10 14 19 23 28 31 32 32 29 31 29 29 27 27 27 25 23 22 21 20 19
2 0 4 3 5 6 4 9 8 6 1 2 3 4 1 2 8 9 10 11 12 13 9 10 11 19 17 19 24 25 28 30 31 30 31 30 27 27 26 23 22 20 20 20
3 4 6 6 5 8 2 1 1 1 2 3 3 3 1 2 6 9 8 12 13 14 13 13 11 14 22 16 20 19 22 27 29 28 24 29 31 26 23 24 21 18 19 19
8 3 4 4 1 7 3 1 1 2 1 1 2 2 1 3 3 4 5 11 12 15 14 16 6 10 14 16 13 15 19 23 23 23 26 34 27 25 25 25 23 19 17 20
2 7 3 5 5 4 4 3 2 3 1 2 0 3 3 2 5 1 5 8 9 12 13 12 9 2 8 13 10 11 13 15 17 18 23 38 27 22 25 24 24 20 18 18
5 6 5 5 6 3 6 6 4 2 2 3 1 2 2 1 3 1 7 7 4 8 11 8 5 2 7 10 10 5 6 10 17 22 25 32 33 24 24 22 23 20 18 18
4 2 1 1 2 3 5 4 2 4 1 3 2 4 3 1 4 4 3 6 1 8 9 6 3 1 4 5 5 3 5 6 14 19 20 26 22 18 21 19 22 20 18 18
2 2 1 3 2 11 3 9 3 1 2 3 1 4 5 3 7 7 7 6 6 7 7 8 8 3 3 5 4 3 5 5 2 7 17 15 21 13 12 16 20 19 17 17
6 2 3 2 4 1 3 3 5 2 2 3 3 3 3 4 5 9 6 6 7 8 7 11 10 8 5 4 2 0 1 5 6 8 12 13 12 15 16 16 14 17 18 17
6 2 0 4 2 3 2 3 1 2 3 1 2 4 2 4 3 8 6 6 7 10 9 10 12 10 7 5 2 0 4 1 5 8 11 13 14 12 12 14 16 18 18 19
10 3 5 3 4 2 3 3 3 3 1 4 4 5 2 5 8 4 5 6 9 12 13 15 17 14 10 8 5 3 2 4 2 2 6 10 11 11 13 16 11 9 11 13
6 3 2 3 3 3 3 2 3 4 4 3 8 11 5 5 6 4 4 7 10 12 13 14 16 18 16 14 12 10 8 6 5 5 6 9 12 14 14 11 16 10 8 9
1 3 2 4 7 3 3 5 6 8 5 6 1 5 8 7 3 5 6 7 11 12 13 15 18 19 20 21 21 20 17 14 11 7 4 2 4 3 4 5 7 8 7 7
1 4 3 4 4 3 5 6 7 5 4 8 6 6 2 1 4 7 8 8 10 11 12 14 16 17 19 19 19 19 20 20 18 14 13 11 7 2 2 3 7 11 9 12
2 7 5 3 2 1 7 9 7 3 3 2 4 1 2 3 6 8 8 8 10 9 10 11 13 14 14 15 15 18 18 18 18 19 18 17 16 13 8 5 4 9 9 7
4 4 1 2 3 7 3 4 6 6 3 5 3 4 5 6 6 6 7 9 9 7 8 8 8 9 9 10 11 12 13 14 14 14 14 14 15 16 15 13 9 6 11 14
0 4 3 3 7 3 2 5 5 6 5 6 9 9 9 7 5 4 7 7 6 5 2 1 2 4 5 5 4 6 7 8 8 10 12 13 15 15 14 13 12 12 12 9
5 4 4 3 5 6 2 7 5 2 7 12 11 14 13 8 4 1 8 9 6 4 5 4 4 5 7 8 9 10 9 9 7 8 9 13 13 12 12 11 11 11 10 12
2 2 6 6 6 3 1 4 8 8 1 14 14 15 16 7 5 2 8 9 8 8 6 8 9 10 9 8 8 9 11 12 11 10 9 8 8 11 13 13 13 14 16 17
2 3 3 3 5 8 2 5 6 2 2 7 8 10 13 7 1 3 6 7 6 7 7 7 6 6 7 9 10 12 14 14 14 14 14 13 12 12 13 15 18 16 17 21
3 2 2 4 1 2 4 5 6 4 5 5 5 4 4 4 1 2 4 6 9 12 12 9 9 11 12 13 15 16 17 17 17 17 18 19 19 19 18 19 22 26 25 25
3 3 2 2 3 3 2 3 6 6 6 7 5 3 0 1 5 8 12 15 17 14 12 14 15 15 15 15 16 18 19 20 22 23 24 25 25 25 25 25 27 30 32 30
1 7 4 3 4 4 6 5 7 9 9 7 6 4 4 7 10 13 14 14 15 16 16 15 14 15 17 20 23 25 27 29 30 31 30 30 29 29 31 33 35 36 38 37
6 5 5 6 7 5 6 12 11 10 8 6 4 5 6 6 7 9 11 13 14 13 12 14 18 23 26 28 32 34 33 31 31 29 23 23 23 26 26 29 33 34 35 32
Wind_Direction
36 200 274 310 257 203 247 288 307 293 300 318 295 252 12 267 248 251 246 259 260 253 251 241 244 243 240 242 239 238 237 230 224 224 224 226 228 230 234 236 229 230 232 231
159 233 229 258 253 246 276 296 286 283 1 296 227 254 343 5 285 281 293 284 282 281 271 251 247 245 240 245 245 244 238 235 229 227 230 230 231 235 240 241 238 234 236 236
198 121 132 268 273 280 246 238 261 266 24 66 278 262 95 348 285 295 289 313 319 303 305 273 244 233 237 242 243 248 247 242 237 233 234 237 242 242 243 247 241 240 239 239
234 191 239 260 258 223 256 215 244 268 242 312 317 299 326 248 291 297 301 318 340 341 334 300 258 235 237 246 239 248 249 243 240 237 235 241 243 245 248 247 253 247 244 245
175 195 203 237 239 186 295 181 256 311 167 203 31 269 105 255 255 264 311 334 341 340 341 314 262 240 245 242 240 247 250 247 242 239 223 243 242 243 253 256 259 256 251 249
257 209 245 239 143 194 114 180 83 144 194 188 1 298 26 213 245 254 7 348 344 348 359 353 351 244 229 229 252 247 250 248 241 238 224 238 243 239 247 257 257 259 258 256
284 248 230 203 239 158 190 229 264 196 10 2 61 240 297 239 229 272 318 325 323 348 347 343 351 292 237 224 252 270 262 259 251 240 233 225 232 243 249 253 255 262 259 262
214 182 192 168 230 212 187 235 232 205 265 355 182 271 15 164 235 307 291 290 262 347 349 345 337 296 233 250 266 272 261 270 260 235 232 227 219 242 245 249 249 257 259 271
191 232 284 337 170 214 146 174 69 114 112 254 339 262 238 172 216 189 94 106 69 342 344 22 45 317 221 227 249 255 252 276 284 257 217 203 211 248 236 248 256 259 261 272
193 276 50 137 140 56 255 136 170 134 218 274 208 283 263 46 102 143 107 44 357 356 39 66 71 91 159 166 204 219 254 281 345 117 170 194 225 233 236 264 254 254 256 269
181 256 122 200 22 111 146 129 62 99 321 261 275 271 200 236 120 124 100 36 13 39 59 66 61 63 85 117 154 253 268 223 196 167 181 199 241 245 251 259 272 262 257 264
179 212 70 96 328 299 52 95 127 264 182 106 322 278 196 337 108 113 68 35 65 58 66 78 69 55 49 73 112 192 24 35 232 230 233 239 247 251 262 277 293 277 260 261
168 211 148 181 151 119 57 55 82 108 118 208 277 281 21 94 122 82 32 62 84 70 65 69 64 57 46 31 22 35 34 29 19 298 265 255 246 258 281 290 291 289 267 261
129 122 226 262 89 113 169 225 206 254 241 252 243 285 311 15 141 110 67 83 89 74 62 60 57 54 53 49 47 43 29 12 344 314 288 266 268 274 271 262 252 291 297 303
161 117 149 135 137 170 199 241 221 233 254 247 72 268 311 341 172 134 119 100 87 75 64 61 59 56 59 62 59 54 47 34 25 9 356 360 303 310 303 274 266 271 286 304
57 133 150 189 177 195 242 241 240 218 227 250 271 284 327 78 142 130 134 116 90 82 81 75 68 60 53 48 45 43 39 36 37 42 45 41 42 42 40 270 260 245 259 299
133 148 159 224 339 246 267 256 211 217 223 262 256 37 157 123 142 141 135 122 104 97 85 73 62 57 53 47 43 40 40 39 40 49 55 50 44 34 14 305 283 268 264 252
126 122 175 258 157 244 359 300 244 249 226 219 241 181 156 137 130 141 145 129 120 112 88 65 66 66 60 57 49 42 36 33 32 32 32 29 22 17 9 0 0 302 274 279
309 147 146 235 236 331 219 205 175 200 218 195 163 158 149 141 148 160 164 158 148 134 123 89 57 36 23 21 29 32 15 9 13 7 5 2 357 355 353 342 336 334 332 314
83 62 231 155 231 233 252 182 177 175 257 183 175 171 167 164 199 200 198 190 190 234 290 287 294 304 315 324 327 331 333 330 332 333 329 331 339 345 341 337 320 307 299 297
127 115 220 207 238 261 269 124 141 202 24 173 182 180 178 194 225 244 201 216 248 285 291 287 291 303 311 315 325 327 325 326 320 306 297 300 308 324 328 329 332 322 298 279
203 195 199 175 212 247 140 137 205 17 87 159 168 178 188 201 189 224 212 238 277 298 298 297 292 296 304 306 309 313 318 314 307 302 300 289 283 289 299 307 312 311 312 303
195 242 317 234 339 16 268 269 267 218 165 157 154 163 167 189 242 268 273 278 284 289 286 282 287 292 298 304 308 311 313 313 313 307 300 295 291 288 282 285 294 299 301 302
176 166 237 210 190 263 237 214 173 178 165 157 154 143 168 299 297 296 294 294 293 295 285 287 290 290 292 299 305 309 309 308 305 301 297 292 286 283 283 283 283 285 287 289
82 166 177 234 248 265 232 205 167 159 149 147 159 189 240 265 275 282 287 290 286 284 285 290 295 297 301 303 302 301 301 301 298 294 288 283 280 281 282 283 283 282 280 277
198 198 219 256 218 209 207 178 166 168 174 188 219 238 251 265 280 292 295 295 296 295 291 294 298 301 301 301 300 301 303 303 297 292 285 278 274 281 282 285 286 281 279 277